Weather History for Fallon NAS, NV

Change the Weather History Date:

Wednesday, March 27, 2013

  Actual Average Record
Temperature  
Mean Temperature 48 °F -  
Max Temperature 66 °F 59 °F 78 °F (1986)
Min Temperature 30 °F 31 °F 15 °F (1942)
Degree Days  
Heating Degree Days 17    
Moisture  
Dew Point 25 °F    
Average Humidity 42    
Maximum Humidity 69    
Minimum Humidity 20    
Precipitation  
Precipitation 0.00 in - - ()
Sea Level Pressure  
Sea Level Pressure 29.87 in    
Wind  
Wind Speed 3 mph (NW)    
Max Wind Speed 8 mph    
Max Gust Speed -    
Visibility 10 miles    
Events      
Averages and records for this station are not official NWS values.
T = Trace of Precipitation, MM = Missing Value Source: NWS Daily Summary

Daily Weather History Graph

Daily Weather History Graph

Search for Another Location

Airport:

Trip Planner

Search our weather history database for the weather conditions in past years. The results will help you decide how hot, cold, wet, or windy it might be!

Date:

Astronomy

Mar. 27, 2013 Rise Set
Actual Time 6:46 AM PDT 7:14 PM PDT
Civil Twilight 6:19 AM PDT 7:41 PM PDT
Nautical Twilight 5:47 AM PDT 8:12 PM PDT
Astronomical Twilight 5:15 AM PDT 8:45 PM PDT
Moon 8:02 PM PDT 6:40 AM PDT
Length of Visible Light 13h 21m
Length of Day
12h 27m
Full, 100% of the Moon is Illuminated
Mar 27
Full
Apr 2
Last Quarter
Apr 10
New
Apr 18
First Quarter
Apr 25
Full

Hourly Weather History & Observations

Time (PDT) Temp. Windchill Dew Point Humidity Pressure Visibility Wind Dir Wind Speed Gust Speed Precip Events Conditions
12:56 AM 42.1 °F 39.2 °F 23.0 °F 47% 29.87 in 10.0 mi East 4.6 mph - N/A   Clear
1:56 AM 39.9 °F - 23.0 °F 51% 29.87 in 10.0 mi Calm Calm - N/A   Clear
2:56 AM 39.9 °F 36.7 °F 25.0 °F 55% 29.86 in 10.0 mi WSW 4.6 mph - N/A   Clear
3:56 AM 34.0 °F - 19.9 °F 56% 29.86 in 10.0 mi Calm Calm - N/A   Clear
4:56 AM 32.0 °F 28.7 °F 21.0 °F 64% 29.87 in 10.0 mi SE 3.5 mph - N/A   Clear
5:56 AM 30.9 °F 27.5 °F 21.0 °F 67% 29.87 in 10.0 mi South 3.5 mph - N/A   Clear
6:11 AM 30.2 °F 25.4 °F 21.2 °F 69% 29.95 in 10.0 mi SSW 4.6 mph - N/A   Scattered Clouds
6:56 AM 30.9 °F 27.5 °F 21.0 °F 67% 29.88 in 10.0 mi South 3.5 mph - N/A   Scattered Clouds
7:56 AM 37.9 °F - 27.0 °F 65% 29.89 in 10.0 mi Calm Calm - N/A   Scattered Clouds
8:56 AM 46.9 °F - 30.0 °F 52% 29.89 in 10.0 mi SW 3.5 mph - N/A   Mostly Cloudy
9:56 AM 52.0 °F - 30.0 °F 43% 29.90 in 10.0 mi Calm Calm - N/A   Mostly Cloudy
10:56 AM 55.0 °F - 28.0 °F 35% 29.90 in 10.0 mi Calm Calm - N/A   Mostly Cloudy
11:56 AM 59.0 °F - 28.0 °F 31% 29.89 in 10.0 mi Calm Calm - N/A   Overcast
12:56 PM 62.1 °F - 27.0 °F 26% 29.87 in 10.0 mi Calm Calm - N/A   Overcast
2:56 PM 66.0 °F - 24.1 °F 20% 29.83 in 10.0 mi Variable 6.9 mph - N/A   Mostly Cloudy
3:56 PM 66.0 °F - 24.1 °F 20% 29.82 in 10.0 mi Variable 4.6 mph - N/A   Overcast
4:56 PM 66.0 °F - 24.1 °F 20% 29.81 in 10.0 mi Calm Calm - N/A   Overcast
5:56 PM 66.0 °F - 25.0 °F 21% 29.81 in 10.0 mi North 6.9 mph - N/A   Overcast
6:56 PM 63.0 °F - 24.1 °F 23% 29.81 in 10.0 mi NE 3.5 mph - N/A   Mostly Cloudy
7:56 PM 59.0 °F - 24.1 °F 26% 29.82 in 10.0 mi North 3.5 mph - N/A   Mostly Cloudy
8:56 PM 57.0 °F - 26.1 °F 30% 29.85 in 10.0 mi NNW 8.1 mph - N/A   Mostly Cloudy
9:56 PM 54.0 °F - 27.0 °F 35% 29.87 in 10.0 mi WNW 8.1 mph - N/A   Mostly Cloudy
10:56 PM 50.0 °F - 27.0 °F 41% 29.88 in 10.0 mi NW 5.8 mph - N/A   Mostly Cloudy
11:56 PM 45.0 °F 41.2 °F 25.0 °F 46% 29.89 in 10.0 mi ENE 6.9 mph - N/A   Clear